カタログに戻る

FENGYUN 1C DEB

運用中SSO
NORAD 29942·DEBRIS·🇨🇳 China

打ち上げ May 10, 1999 から Taiyuan Satellite Launch Center

Loading…

次のパス (今後24時間)

TLE

最新Source: Space-Track

元期: Sep 14, 2026, 03:19 UTC

1 29942U 99025JQ  26257.13876649  .00000971  00000-0  37895-3 0  9999
2 29942  98.6101 325.7485 0049519 185.5122 174.5522 14.31227529 18066

AllMySatでFENGYUN 1C DEBをリアルタイム追跡

Download on the App Store